Meteo pe oră la Aberlour

Astăzi, 5 August, Joi

Timp Temperatura Precipitaţii Vânt Presiune Umiditate
00:00 +13°C° 0 mm 2 m/s 738 mmHg 90%
01:00 +13°C° 0 mm 2 m/s 738 mmHg 90%
02:00 +13°C° 0 mm 2 m/s 737 mmHg 90%
03:00 +13°C° 0 mm 2 m/s 737 mmHg 90%
04:00 +13°C° 0 mm 2 m/s 737 mmHg 89%
05:00 +13°C° 0 mm 2 m/s 736 mmHg 88%
06:00 +14°C° 0 mm 2 m/s 736 mmHg 86%
07:00 +14°C° 0 mm 3 m/s 736 mmHg 77%
08:00 +17°C° 0 mm 3 m/s 736 mmHg 69%
09:00 +18°C° 0 mm 4 m/s 736 mmHg 60%
10:00 +19°C° 0 mm 4 m/s 735 mmHg 57%
11:00 +20°C° 0 mm 5 m/s 735 mmHg 53%
12:00 +21°C° 0 mm 5 m/s 735 mmHg 50%
13:00 +20°C° 0.1 mm 6 m/s 735 mmHg 55%
14:00 +20°C° 0.1 mm 6 m/s 734 mmHg 60%
15:00 +18°C° 0.1 mm 7 m/s 734 mmHg 65%
16:00 +17°C° 0.1 mm 7 m/s 734 mmHg 69%
17:00 +17°C° 0.1 mm 6 m/s 734 mmHg 73%
18:00 +16°C° 0.1 mm 6 m/s 733 mmHg 77%
19:00 +15°C° 0 mm 6 m/s 733 mmHg 81%
20:00 +14°C° 0 mm 5 m/s 733 mmHg 86%
21:00 +14°C° 0 mm 5 m/s 733 mmHg 90%
22:00 +13°C° 0 mm 5 m/s 733 mmHg 90%
23:00 +13°C° 0 mm 5 m/s 733 mmHg 91%

Mâine, 6 August, Vineri

Timp Temperatura Precipitaţii Vânt Presiune Umiditate
00:00 +13°C° 0 mm 5 m/s 732 mmHg 92%
01:00 +13°C° 0.1 mm 5 m/s 732 mmHg 92%
02:00 +14°C° 0.1 mm 5 m/s 731 mmHg 92%
03:00 +14°C° 0.1 mm 5 m/s 731 mmHg 93%
04:00 +14°C° 0.1 mm 5 m/s 731 mmHg 93%
05:00 +14°C° 0.1 mm 6 m/s 730 mmHg 92%
06:00 +14°C° 0.1 mm 6 m/s 730 mmHg 92%
07:00 +14°C° 0.8 mm 6 m/s 730 mmHg 93%
08:00 +14°C° 0.8 mm 6 m/s 730 mmHg 94%
09:00 +14°C° 0.8 mm 6 m/s 730 mmHg 95%
10:00 +14°C° 1 mm 6 m/s 730 mmHg 95%
11:00 +14°C° 1 mm 5 m/s 729 mmHg 96%
12:00 +14°C° 1 mm 5 m/s 729 mmHg 96%
13:00 +15°C° 0.3 mm 5 m/s 729 mmHg 94%
14:00 +17°C° 0.3 mm 4 m/s 728 mmHg 92%
15:00 +17°C° 0.3 mm 4 m/s 728 mmHg 91%
16:00 +17°C° 0.2 mm 4 m/s 728 mmHg 89%
17:00 +18°C° 0.2 mm 4 m/s 728 mmHg 86%
18:00 +18°C° 0.2 mm 4 m/s 728 mmHg 84%
19:00 +17°C° 0.2 mm 4 m/s 728 mmHg 88%
20:00 +14°C° 0.2 mm 4 m/s 728 mmHg 92%
21:00 +13°C° 0.2 mm 3 m/s 728 mmHg 96%
22:00 +13°C° 0 mm 3 m/s 728 mmHg 96%
23:00 +13°C° 0 mm 3 m/s 728 mmHg 96%

Poimâine, 7 August, Sâmbătă

Timp Temperatura Precipitaţii Vânt Presiune Umiditate
00:00 +13°C° 0 mm 3 m/s 728 mmHg 95%
01:00 +13°C° 0 mm 3 m/s 728 mmHg 96%
02:00 +14°C° 0 mm 2 m/s 728 mmHg 96%
03:00 +14°C° 0 mm 2 m/s 727 mmHg 97%
04:00 +14°C° 0 mm 2 m/s 727 mmHg 96%
05:00 +14°C° 0 mm 2 m/s 727 mmHg 95%
06:00 +14°C° 0 mm 2 m/s 727 mmHg 94%
07:00 +16°C° 0 mm 2 m/s 727 mmHg 88%
08:00 +17°C° 0 mm 2 m/s 727 mmHg 82%
09:00 +18°C° 0 mm 3 m/s 727 mmHg 76%
10:00 +18°C° 0.2 mm 3 m/s 727 mmHg 74%
11:00 +19°C° 0.2 mm 3 m/s 727 mmHg 72%
12:00 +19°C° 0.2 mm 4 m/s 727 mmHg 69%
13:00 +19°C° 0.5 mm 4 m/s 727 mmHg 73%
14:00 +19°C° 0.5 mm 4 m/s 727 mmHg 76%
15:00 +17°C° 0.5 mm 5 m/s 727 mmHg 79%
16:00 +18°C° 0.3 mm 4 m/s 727 mmHg 79%
17:00 +17°C° 0.3 mm 4 m/s 727 mmHg 80%
18:00 +17°C° 0.3 mm 4 m/s 728 mmHg 80%
19:00 +16°C° 0.1 mm 3 m/s 728 mmHg 85%
20:00 +14°C° 0.1 mm 3 m/s 728 mmHg 89%
21:00 +14°C° 0.1 mm 2 m/s 728 mmHg 94%
22:00 +14°C° 0.1 mm 2 m/s 728 mmHg 94%
23:00 +14°C° 0.1 mm 2 m/s 728 mmHg 94%

8 August, Duminică

Timp Temperatura Precipitaţii Vânt Presiune Umiditate
00:00 +13°C° 0.1 mm 2 m/s 728 mmHg 95%
01:00 +14°C° 0.2 mm 2 m/s 728 mmHg 95%
02:00 +14°C° 0.2 mm 1 m/s 728 mmHg 95%
03:00 +14°C° 0.2 mm 1 m/s 728 mmHg 95%
04:00 +14°C° 0.1 mm 1 m/s 728 mmHg 95%
05:00 +14°C° 0.1 mm 1 m/s 728 mmHg 95%
06:00 +14°C° 0.1 mm 1 m/s 728 mmHg 95%
07:00 +15°C° 0.2 mm 1 m/s 728 mmHg 92%
08:00 +16°C° 0.2 mm 1 m/s 729 mmHg 88%
09:00 +16°C° 0.2 mm 1 m/s 729 mmHg 85%
10:00 +18°C° 0.5 mm 1 m/s 729 mmHg 83%
11:00 +19°C° 0.5 mm 1 m/s 729 mmHg 81%
12:00 +19°C° 0.5 mm 1 m/s 730 mmHg 79%
13:00 +20°C° 0.8 mm 1 m/s 730 mmHg 78%
14:00 +20°C° 0.8 mm 1 m/s 730 mmHg 77%
15:00 +20°C° 0.8 mm 1 m/s 730 mmHg 76%
16:00 +19°C° 1.2 mm 1 m/s 731 mmHg 80%
17:00 +19°C° 1.2 mm 1 m/s 731 mmHg 84%
18:00 +17°C° 1.2 mm 2 m/s 731 mmHg 88%
19:00 +16°C° 0.4 mm 2 m/s 732 mmHg 90%
20:00 +15°C° 0.4 mm 2 m/s 733 mmHg 91%
21:00 +13°C° 0.4 mm 3 m/s 733 mmHg 93%
22:00 +13°C° 0.1 mm 3 m/s 734 mmHg 93%
23:00 +13°C° 0.1 mm 3 m/s 734 mmHg 94%

9 August, Luni

Timp Temperatura Precipitaţii Vânt Presiune Umiditate
00:00 +12°C° 0.1 mm 3 m/s 735 mmHg 94%
01:00 +12°C° 0 mm 3 m/s 735 mmHg 94%
02:00 +12°C° 0 mm 3 m/s 735 mmHg 93%
03:00 +12°C° 0 mm 3 m/s 736 mmHg 93%
04:00 +12°C° 0 mm 3 m/s 736 mmHg 92%
05:00 +13°C° 0 mm 3 m/s 736 mmHg 92%
06:00 +13°C° 0 mm 3 m/s 737 mmHg 91%
07:00 +14°C° 0.2 mm 3 m/s 737 mmHg 89%
08:00 +14°C° 0.2 mm 4 m/s 738 mmHg 87%
09:00 +15°C° 0.2 mm 4 m/s 738 mmHg 85%
10:00 +17°C° 0.1 mm 4 m/s 739 mmHg 75%
11:00 +18°C° 0.1 mm 4 m/s 739 mmHg 64%
12:00 +20°C° 0.1 mm 4 m/s 739 mmHg 53%
13:00 +20°C° 0 mm 4 m/s 740 mmHg 56%
14:00 +20°C° 0 mm 4 m/s 740 mmHg 58%
15:00 +20°C° 0 mm 3 m/s 740 mmHg 61%
16:00 +18°C° 0.4 mm 3 m/s 740 mmHg 71%
17:00 +17°C° 0.4 mm 2 m/s 740 mmHg 81%
18:00 +15°C° 0.4 mm 2 m/s 741 mmHg 91%
19:00 +15°C° 0.1 mm 2 m/s 741 mmHg 91%
20:00 +15°C° 0.1 mm 2 m/s 741 mmHg 92%
21:00 +14°C° 0.1 mm 3 m/s 741 mmHg 92%
22:00 +15°C° 0.1 mm 2 m/s 741 mmHg 93%
23:00 +15°C° 0.1 mm 2 m/s 741 mmHg 93%

10 August, Marţi

Timp Temperatura Precipitaţii Vânt Presiune Umiditate
00:00 +15°C° 0.1 mm 2 m/s 742 mmHg 94%
01:00 +14°C° 0.1 mm 2 m/s 742 mmHg 95%
02:00 +14°C° 0.1 mm 2 m/s 742 mmHg 95%
03:00 +14°C° 0.1 mm 2 m/s 742 mmHg 95%
04:00 +15°C° 0 mm 2 m/s 742 mmHg 95%
05:00 +15°C° 0 mm 2 m/s 742 mmHg 95%
06:00 +15°C° 0 mm 2 m/s 742 mmHg 94%
07:00 +16°C° 0 mm 2 m/s 742 mmHg 93%
08:00 +17°C° 0 mm 2 m/s 741 mmHg 91%
09:00 +17°C° 0 mm 2 m/s 741 mmHg 89%
10:00 +18°C° 0 mm 3 m/s 741 mmHg 84%
11:00 +20°C° 0 mm 3 m/s 741 mmHg 78%
12:00 +21°C° 0 mm 3 m/s 741 mmHg 72%
13:00 +21°C° 0 mm 3 m/s 741 mmHg 70%
14:00 +22°C° 0 mm 3 m/s 741 mmHg 68%
15:00 +22°C° 0 mm 3 m/s 741 mmHg 65%
16:00 +21°C° 0.1 mm 3 m/s 741 mmHg 72%
17:00 +20°C° 0.1 mm 2 m/s 740 mmHg 78%
18:00 +19°C° 0.1 mm 2 m/s 740 mmHg 84%
19:00 +18°C° 0.1 mm 2 m/s 740 mmHg 86%
20:00 +17°C° 0.1 mm 3 m/s 740 mmHg 88%
21:00 +17°C° 0.1 mm 3 m/s 739 mmHg 90%
22:00 +17°C° 0.5 mm 3 m/s 739 mmHg 91%
23:00 +16°C° 0.5 mm 3 m/s 739 mmHg 92%
Arată mai mult

Formular de consimțământ

Meteoprog și furnizorii noștri de servicii pot stoca și accesa date personale, precum cookies, identificatori de dispozitiv sau alte tehnologii similare pe dispozitivul dumneavoastră și procesa astfel de date pentru a personaliza conținutul și reclamele, dar și pentru a oferi caracteristici de social media și pentru a analiza traficul.

  • Stocarea și/sau accesarea informațiilor pe dispozitivul dumneavoastră

    Cookies, identificatori de dispozitiv sau alte informații pot fi stocate sau accesate pe dispozitiv în scopurile indicate mai sus.

  • Reclame și conținut personalizat, evaluarea reclamelor și a conținutului, informații despre audiențe și dezvoltarea produselor

    Reclamele și conținutul pot fi personalizate pe baza unui profil. Pot fi adăugate date suplimentare pentru a personaliza mai bine reclamele și conținutul. Performanța reclamelor și conținutului poate fi măsurată. Pot fi obținute informații despre utilizatorii care au văzut reclamele și conținutul. Aceste date pot fi utilizate pentru a dezvolta sau îmbunătăți experiența utilizatorilor, sistemele și software-ul.

Dând clic pe ‘Sunt de acord’, permiteți utilizarea cookie-urilor menționate, a identificatorilor de dispozitiv, balizelor web sau altor tehnologii similare. Setările pot fi modificate din browser-ul dispozitivului dumneavoastră.

În anumite scopuri, interesele legitime pot prima asupra consimțământului. Puteți citi mai multe informații în acest sens în Politica privind Confidențialitatea Datelor și Cookie.